Regional Weather Roundup
Issued by NWS

Home | Current Version | Previous Version | Graphics & Text | Print | Product List | Glossary On
Versions: 1 2 3 4 5 6 7 8 9 10 11 12 13 14 15 16 17 18 19 20 21 22 23 24 25 26 27 28 29 30 31 32 33 34 35 36 37 38 39 40 41 42 43 44 45 46 47 48 49 50
000
ASUS43 KDMX 202306
RWRIA

WEATHER ROUNDUP FOR IOWA
NATIONAL WEATHER SERVICE DES MOINES IA
600 PM CDT SUN AUG 20 2017

NOTE: "FAIR" INDICATES FEW OR NO CLOUDS BELOW 12,000 FEET WITH NO
SIGNIFICANT WEATHER AND/OR OBSTRUCTIONS TO VISIBILITY.

* - THESE STATIONS ARE NOT NWS STATIONS...THUS NOT UNDER NWS
QUALITY CONTROL.  THEY ALSO DO NOT REPORT WEATHER SUCH
AS PRECIPITATION OR FOG.

IAZ001>003-012>014-020>022-031>034-043>046-210000-
   NORTHWEST IOWA

CITY           SKY/WX    TMP DP  RH WIND       PRES   REMARKS
CARROLL *      PTSUNNY   82  73  74 SW5       29.96R HX  88
CHEROKEE *     SUNNY     85  68  56 S7        29.96R HX  88
DENISON *      PTSUNNY   81  68  65 S6G12     29.99R HX  83
LE MARS *      CLOUDY   100 N/A N/A S5        29.95R
ORANGE CITY *  MOSUNNY   84  70  61 CALM      29.98R HX  88
SHELDON *      CLOUDY    82  68  61 CALM      29.96R HX  85
SIOUX CITY     MOSUNNY   84  68  58 S10       29.96R HX  87
SPENCER        SUNNY     85  66  53 SW5       29.97R HX  87
STORM LAKE *   SUNNY     82  70  65 SW6       29.97S HX  86
$$

IAZ055>058-069>071-079>083-090>094-210000-
   SOUTHWEST IOWA

CITY           SKY/WX    TMP DP  RH WIND       PRES   REMARKS
ATLANTIC *     SUNNY     79  68  69 CALM      29.96F HX  81
AUDUBON *      MOSUNNY   81  73  78 S3        29.98S HX  85
CLARINDA *     MOSUNNY   79  70  73 S3        29.98S HX  81
COUNCIL BLFS * SUNNY     81  66  61 S13G22    29.96S HX  83
CRESTON *      CLOUDY    75  66  73 NE6       29.97F
HARLAN  *      PTSUNNY   81  68  65 CALM      30.00S HX  83
LAMONI         CLOUDY    70  65  84 CALM      29.98F
RED OAK *      PTSUNNY   77  70  78 SE5       29.97S
SHENANDOAH *   MOSUNNY   81  68  65 SE7       29.95F HX  83
$$

IAZ047>049-059>061-072>074-084-210000-
   CENTRAL IOWA

CITY           SKY/WX    TMP DP  RH WIND       PRES   REMARKS
AMES           SUNNY     82  74  76 S9        29.96S HX  88
ANKENY *       CLOUDY    82  66  57 S7        29.97S HX  85
BOONE *        MOSUNNY   84  72  65 S6        29.96R HX  89
CHARITON *     CLOUDY    75  66  73 CALM      29.98S
DES MOINES     MOSUNNY   80  66  62 SW7       29.96F HX  82
GRINNELL*      MOSUNNY   78  68  70 CALM      30.00S HX  80
KNOXVILLE *    PTSUNNY   79  66  65 VRB3      29.97S HX  81
MARSHALLTOWN   SUNNY     80  69  69 SE8       29.97S HX  83
NEWTON *       MOSUNNY   79  70  73 SE5       29.98S HX  81
PELLA *        CLOUDY    81  67  61 CALM      29.98F HX  84
PERRY *          N/A     81  72  74 S7        29.96F HX  85
$$

IAZ004>006-015-016-023>025-035-036-210000-
   NORTH CENTRAL IOWA

CITY           SKY/WX    TMP DP  RH WIND       PRES   REMARKS
ALGONA *       SUNNY     84  68  58 CALM      29.96S HX  87
CLARION *      SUNNY     84  72  65 E5        29.97R HX  89
ESTHERVILLE    SUNNY     83  67  58 CALM      29.96R HX  85
FORT DODGE *   SUNNY     84  66  54 CALM      29.96S HX  86
MASON CITY     MOSUNNY   84  67  56 CALM      29.98R HX  86
FOREST CITY *    N/A     82  68  61 CALM      29.96S HX  85
WEBSTER CITY * SUNNY     86  68  54 E5        29.94S HX  89
IOWA FALLS *     N/A     84  68  59 SE5       29.99S HX  87
$$

IAZ007>011-017>019-026>030-037>042-050>054-066-210000-
   NORTHEAST IOWA

CITY           SKY/WX    TMP DP  RH WIND       PRES   REMARKS
CEDAR RAPIDS   MOSUNNY   80  68  66 SE8       29.98S HX  83
CHARLES CITY * SUNNY     82  68  61 S5        29.98S HX  85
CLINTON *      CLOUDY    76  70  82 SE6       30.00F
DECORAH *      SUNNY     82  66  57 S3G12     29.97S HX  85
DUBUQUE        MOSUNNY   76  66  71 S5        30.02R
MONTICELLO *   MOSUNNY   77  66  69 SE8       30.00R
OELWEIN *      SUNNY     79  68  69 S10       30.00R HX  81
WATERLOO       SUNNY     82  64  54 S13       29.96R HX  83
$$

IAZ064-065-067-068-078-210000-
   EAST CENTRAL IOWA

CITY           SKY/WX    TMP DP  RH WIND       PRES   REMARKS
DAVENPORT      PTSUNNY   77  69  76 E7        30.01F
IOWA CITY      CLOUDY    81  69  67 E5        29.98F HX  84
MUSCATINE *    CLOUDY    82  70  65 SE7       29.97F HX  86
QUAD CITIES    PTSUNNY   82  69  64 E7        29.98F HX  85
$$

IAZ062-063-075>077-085>089-095>099-210000-
   SOUTHEAST IOWA

CITY           SKY/WX    TMP DP  RH WIND       PRES   REMARKS
BURLINGTON     PTSUNNY   81  73  76 S3        29.97F HX  86
FAIRFIELD *    CLOUDY    79  66  65 NW8       29.97F HX  81
FORT MADISON * MOSUNNY   81  73  78 CALM      29.97F HX  85
KEOKUK *       MOSUNNY   82  68  61 W7        29.95F HX  85
OSKALOOSA *      N/A     77  69  76 W3        29.99S
OTTUMWA        CLOUDY    78  68  71 W5        29.98S HX  80
WASHINGTON *   CLOUDY    81  73  78 CALM      29.97F HX  85
$$

ABBREVIATIONS USED IN REMARKS
   TC - TEMPERATURES IN CELSIUS
  WCI - WIND CHILL INDEX
   HX - HEAT INDEX
  VSB - VISIBILITY
$$





USA.gov is the U.S. government's official web portal to all federal, state and local government web resources and services.